TimeEDT,TemperatureF,Dew PointF,Humidity,Sea Level PressureIn,VisibilityMPH,Wind Direction,Wind SpeedMPH,Gust SpeedMPH,PrecipitationIn,Events,Conditions,WindDirDegrees,DateUTC
12:10 AM,71.6,66.2,83,29.93,8.0,West,3.5,-,N/A,Rain-Thunderstorm,Light Thunderstorms and Rain,260,2013-05-23 04:10:00
12:35 AM,68.0,64.4,88,29.91,9.0,WSW,3.5,-,N/A,,Overcast,240,2013-05-23 04:35:00
12:58 AM,68.2,66.4,94,29.93,10.0,South,2.3,-,0.13,,Partly Cloudy,170,2013-05-23 04:58:00
1:58 AM,67.5,67.1,99,29.91,10.0,South,2.3,-,N/A,,Clear,170,2013-05-23 05:58:00
2:58 AM,67.1,66.7,99,29.90,10.0,South,5.8,-,N/A,,Mostly Cloudy,180,2013-05-23 06:58:00
3:36 AM,69.8,68.0,94,29.88,10.0,SSW,10.4,-,N/A,Rain,Light Rain,200,2013-05-23 07:36:00
3:46 AM,69.8,68.0,94,29.89,10.0,SSW,10.4,-,N/A,,Overcast,210,2013-05-23 07:46:00
3:50 AM,69.8,68.0,94,29.89,10.0,SSW,11.5,-,N/A,,Light Drizzle,200,2013-05-23 07:50:00
3:58 AM,70.2,68.4,94,29.91,10.0,SSW,12.7,-,0.00,,Light Drizzle,200,2013-05-23 07:58:00
4:02 AM,69.8,68.0,94,29.89,10.0,SSW,10.4,-,N/A,,Mostly Cloudy,200,2013-05-23 08:02:00
4:58 AM,70.3,67.6,91,29.91,10.0,SSW,11.5,-,0.00,,Mostly Cloudy,210,2013-05-23 08:58:00
4:59 AM,69.8,68.0,94,29.89,10.0,SSW,10.4,-,N/A,,Light Drizzle,210,2013-05-23 08:59:00
5:10 AM,69.8,68.0,94,29.89,10.0,SSW,8.1,-,N/A,,Mostly Cloudy,210,2013-05-23 09:10:00
5:40 AM,69.8,68.0,94,29.90,10.0,SSW,6.9,-,N/A,,Overcast,210,2013-05-23 09:40:00
5:58 AM,70.0,68.5,95,29.91,10.0,SSW,9.2,-,0.00,,Overcast,200,2013-05-23 09:58:00
6:58 AM,70.9,68.4,92,29.92,10.0,South,10.4,-,N/A,,Overcast,180,2013-05-23 10:58:00
7:33 AM,71.6,68.0,88,29.90,10.0,South,10.4,-,N/A,,Overcast,190,2013-05-23 11:33:00
7:58 AM,71.4,68.7,91,29.93,10.0,South,11.5,-,N/A,,Overcast,190,2013-05-23 11:58:00
8:28 AM,73.4,68.0,83,29.90,10.0,South,11.5,-,N/A,,Mostly Cloudy,170,2013-05-23 12:28:00
8:58 AM,73.8,68.0,82,29.93,10.0,South,12.7,-,N/A,,Mostly Cloudy,190,2013-05-23 12:58:00
9:03 AM,73.4,68.0,83,29.91,10.0,SSW,12.7,-,N/A,,Mostly Cloudy,200,2013-05-23 13:03:00
9:43 AM,75.2,68.0,78,29.90,10.0,SSW,13.8,18.4,N/A,,Mostly Cloudy,200,2013-05-23 13:43:00
9:58 AM,74.5,66.7,77,29.93,10.0,SSW,8.1,-,N/A,,Mostly Cloudy,200,2013-05-23 13:58:00
10:08 AM,73.4,66.2,78,29.91,10.0,South,10.4,-,N/A,,Mostly Cloudy,190,2013-05-23 14:08:00
10:23 AM,77.0,68.0,74,29.91,10.0,SSW,10.4,-,N/A,,Overcast,200,2013-05-23 14:23:00
10:33 AM,77.0,68.0,74,29.90,10.0,SSW,10.4,-,N/A,,Mostly Cloudy,210,2013-05-23 14:33:00
10:38 AM,77.0,68.0,74,29.91,10.0,SW,12.7,-,N/A,,Mostly Cloudy,220,2013-05-23 14:38:00
10:48 AM,77.0,68.0,74,29.91,10.0,South,10.4,-,N/A,,Mostly Cloudy,180,2013-05-23 14:48:00
10:58 AM,76.6,66.7,71,29.92,10.0,SSW,11.5,-,N/A,,Mostly Cloudy,200,2013-05-23 14:58:00
11:24 AM,77.0,66.2,69,29.90,10.0,SSW,11.5,-,N/A,,Light Drizzle,200,2013-05-23 15:24:00
11:33 AM,77.0,66.2,69,29.90,10.0,SSW,12.7,-,N/A,,Overcast,200,2013-05-23 15:33:00
11:58 AM,77.2,66.9,71,29.92,10.0,South,11.5,-,0.00,,Mostly Cloudy,180,2013-05-23 15:58:00
12:08 PM,77.0,66.2,69,29.90,10.0,SSW,11.5,-,N/A,,Mostly Cloudy,200,2013-05-23 16:08:00
12:18 PM,78.8,66.2,65,29.90,10.0,South,13.8,20.7,N/A,,Mostly Cloudy,190,2013-05-23 16:18:00
12:28 PM,78.8,66.2,65,29.90,10.0,South,13.8,-,N/A,,Mostly Cloudy,190,2013-05-23 16:28:00
12:58 PM,78.4,65.3,64,29.90,10.0,SSW,16.1,-,N/A,,Mostly Cloudy,210,2013-05-23 16:58:00
1:58 PM,77.5,65.5,66,29.89,10.0,SW,11.5,-,N/A,,Mostly Cloudy,220,2013-05-23 17:58:00
2:58 PM,78.3,66.6,67,29.86,10.0,South,11.5,-,N/A,,Mostly Cloudy,170,2013-05-23 18:58:00
3:22 PM,80.6,68.0,65,29.82,10.0,SSW,11.5,-,N/A,,Scattered Clouds,200,2013-05-23 19:22:00
3:52 PM,80.6,66.2,61,29.81,10.0,South,12.7,-,N/A,,Mostly Cloudy,180,2013-05-23 19:52:00
3:58 PM,79.5,66.4,64,29.83,10.0,South,11.5,-,N/A,,Mostly Cloudy,180,2013-05-23 19:58:00
4:58 PM,78.3,67.6,70,29.82,10.0,SSE,16.1,-,N/A,,Scattered Clouds,160,2013-05-23 20:58:00
5:58 PM,75.4,66.9,75,29.81,10.0,South,16.1,-,N/A,,Mostly Cloudy,170,2013-05-23 21:58:00
6:58 PM,73.9,68.2,82,29.79,10.0,SSE,10.4,-,N/A,,Scattered Clouds,160,2013-05-23 22:58:00
7:58 PM,73.2,68.2,84,29.80,10.0,South,9.2,-,N/A,,Mostly Cloudy,170,2013-05-23 23:58:00
8:03 PM,73.4,68.0,83,29.78,10.0,South,8.1,-,N/A,,Mostly Cloudy,170,2013-05-24 00:03:00
8:48 PM,71.6,68.0,88,29.78,10.0,SSE,8.1,-,N/A,,Mostly Cloudy,160,2013-05-24 00:48:00
8:53 PM,71.6,68.0,88,29.78,10.0,South,6.9,-,N/A,,Mostly Cloudy,170,2013-05-24 00:53:00
8:58 PM,71.2,68.4,91,29.80,10.0,South,5.8,-,N/A,,Mostly Cloudy,170,2013-05-24 00:58:00
9:23 PM,69.8,68.0,94,29.78,10.0,South,2.3,-,N/A,,Mostly Cloudy,170,2013-05-24 01:23:00
9:58 PM,71.1,68.7,92,29.80,10.0,South,5.8,-,N/A,,Overcast,190,2013-05-24 01:58:00
10:13 PM,71.6,68.0,88,29.77,10.0,South,6.9,-,N/A,,Scattered Clouds,190,2013-05-24 02:13:00
10:18 PM,71.6,68.0,88,29.77,10.0,SSW,5.8,-,N/A,,Mostly Cloudy,200,2013-05-24 02:18:00
10:23 PM,71.6,68.0,88,29.77,10.0,SSW,6.9,-,N/A,,Mostly Cloudy,210,2013-05-24 02:23:00
10:28 PM,71.6,68.0,88,29.77,10.0,SW,6.9,-,N/A,,Mostly Cloudy,230,2013-05-24 02:28:00
10:58 PM,71.2,68.4,91,29.81,10.0,WSW,6.9,-,N/A,,Mostly Cloudy,240,2013-05-24 02:58:00
11:12 PM,71.6,66.2,83,29.79,10.0,WNW,20.7,32.2,N/A,,Light Drizzle,290,2013-05-24 03:12:00
11:17 PM,69.8,62.6,78,29.81,10.0,WNW,18.4,32.2,N/A,,Light Drizzle,300,2013-05-24 03:17:00
11:27 PM,66.2,62.6,88,29.82,9.0,WNW,10.4,27.6,N/A,Rain,Light Rain,300,2013-05-24 03:27:00
11:58 PM,64.4,62.4,93,29.83,7.0,WNW,6.9,-,0.04,Rain,Light Rain,290,2013-05-24 03:58:00